Bardonecchia, Italy 16 day weather forecast

Slopes altitude range 1545 m - 1545m

Number of lifts: 21 Pistes: 100km

In some cases the lift and piste totals shown are for the ski domain (e.g. Three Valleys) rather than individual resort (e.g. Courchevel)

Overview

The 16 day weather forecast is fully updated 4 times every day.

    • Thu 21 FEB 2019
    • Thu 21
    • -5C 1C
    • Fri 22 FEB 2019
    • Fri 22
    • -6C 2C
    • Sat 23 FEB 2019
    • Sat 23
    • -5C 3C
    • Sun 24 FEB 2019
    • Sun 24
    • -5C 3C
    • Mon 25 FEB 2019
    • Mon 25
    • -3C 1C
    • Tue 26 FEB 2019
    • Tue 26
    • -4C 5C
    • Wed 27 FEB 2019
    • Wed 27
    • -2C 6C
    • Thu 28 FEB 2019
    • Thu 28
    • -2C 5C
    • Fri 01 MAR 2019
    • Fri 01
    • 1C 9C
    • Sat 02 MAR 2019
    • Sat 02
    • 0C 8C
    • Sun 03 MAR 2019
    • Sun 03
    • 2C 6C
    • Mon 04 MAR 2019
    • Mon 04
    • 2C 10C
    • Tue 05 MAR 2019
    • Tue 05
    • 1C 5C
    • Wed 06 MAR 2019
    • Wed 06
    • -1C 5C
    • Thu 07 MAR 2019
    • Thu 07
    • -4C 1C
    • Fri 08 MAR 2019
    • Fri 08
    • -10C -2C

Date:

Time Type 0°C level Temp Chill Snow Cloud Speed Gust Dir Press
18:00 1452m 1°C 1_7 0cm 41% 7mph 8mph 1028mB
21:00 1321m -6°C -6_9 0cm 31% 9mph 10mph 1029mB
0:00 1259m -6°C -6_10 0cm 15% 10mph 12mph 1029mB
3:00 1251m -7°C -7_9 0cm 0% 9mph 11mph 1028mB
6:00 1297m -7°C -7_7 0cm 29% 7mph 8mph 1028mB
9:00 2779m -6°C -6_6 0cm 7% 6mph 6mph 1028mB
12:00 3402m 2°C 2_6 0cm 4% 6mph 7mph 1026mB
15:00 2822m 2°C 2_7 0cm 17% 7mph 9mph 1025mB
18:00 1668m 2°C 2_3 0cm 11% 3mph 4mph 1027mB
21:00 1772m -4°C -4_5 0cm 0% 5mph 6mph 1028mB
0:00 1734m -4°C -4_4 0cm 0% 4mph 5mph 1029mB
3:00 1625m -4°C -4_2 0cm 0% 2mph 3mph 1030mB
6:00 1552m -5°C -5_3 0cm 0% 3mph 3mph 1030mB
9:00 3124m -5°C -5_1 0cm 0% 1mph 1mph 1030mB
12:00 2639m 3°C 3_3 0cm 0% 3mph 3mph 1029mB
15:00 2569m 3°C 3_4 0cm 0% 4mph 5mph 1028mB
18:00 1625m 3°C 3_1 0cm 0% 1mph 2mph 1030mB
21:00 1509m -5°C -5_2 0cm 26% 2mph 2mph 1032mB
0:00 1413m -5°C -5_1 0cm 13% 1mph 2mph 1033mB
3:00 1429m -6°C -6_1 0cm 0% 1mph 2mph 1033mB
6:00 1492m -6°C -6_3 0cm 0% 3mph 4mph 1034mB
9:00 2878m -5°C -5_2 0cm 1% 2mph 3mph 1034mB
12:00 2974m 3°C 3_1 0cm 1% 1mph 2mph 1033mB
15:00 2755m 3°C 3_2 0cm 1% 2mph 3mph 1032mB
18:00 2035m 3°C 3_2 0cm 0% 2mph 2mph 1032mB
21:00 2109m -3°C -3_3 0cm 0% 3mph 3mph 1033mB
0:00 2089m -3°C -3_2 0cm 0% 2mph 3mph 1033mB
3:00 1996m -3°C -3_1 0cm 0% 1mph 1mph 1032mB
6:00 2014m -3°C -3_4 0cm 1% 4mph 4mph 1033mB
9:00 2630m -3°C -3_9 0cm 0% 9mph 11mph 1034mB
12:00 2324m 1°C 1_11 0cm 0% 11mph 13mph 1033mB
15:00 2322m 1°C 1_9 0cm 19% 9mph 11mph 1033mB
18:00 1467m 1°C 1_6 0cm 10% 6mph 8mph 1035mB
21:00 1308m -6°C -6_5 0cm 0% 5mph 6mph 1036mB
0:00 1418m -6°C -6_4 0cm 0% 4mph 6mph 1035mB
3:00 1517m -5°C -5_3 0cm 0% 3mph 4mph 1034mB
6:00 1641m -5°C -5_3 0cm 9% 3mph 4mph 1032mB
9:00 3078m -4°C -4_4 0cm 0% 4mph 5mph 1031mB
12:00 3144m 5°C 5_2 0cm 16% 2mph 3mph 1029mB
15:00 3200m 5°C 5_1 0cm 86% 1mph 1mph 1028mB
18:00 2145m 5°C 5_0 0cm 82% 0mph 1mph 1028mB
21:00 2133m -2°C -2_0 0cm 80% 0mph 1mph 1029mB
0:00 2186m -2°C -2_1 0cm 46% 1mph 2mph 1028mB
3:00 2193m -2°C -2_1 0cm 0% 1mph 2mph 1027mB
6:00 2156m -2°C -2_1 0cm 2% 1mph 2mph 1026mB
9:00 3429m -2°C -2_1 0cm 48% 1mph 2mph 1025mB
12:00 3382m 6°C 6_2 0cm 62% 2mph 2mph 1024mB
15:00 3309m 6°C 6_2 0cm 70% 2mph 2mph 1022mB
18:00 2310m 6°C 6_1 0cm 70% 1mph 2mph 1024mB
21:00 2310m -1°C -1_2 0cm 89% 2mph 3mph 1025mB
0:00 2242m -1°C -1_1 0cm 92% 1mph 2mph 1025mB
3:00 2196m -1°C -1_3 0cm 96% 3mph 4mph 1024mB
6:00 2114m -2°C -2_4 0cm 91% 4mph 5mph 1024mB
9:00 3053m -2°C -2_5 0cm 70% 5mph 6mph 1024mB
12:00 3047m 5°C 5_6 0cm 68% 6mph 7mph 1023mB
15:00 2950m 5°C 5_6 0cm 23% 6mph 7mph 1021mB
18:00 2118m 5°C 5_4 0cm 11% 4mph 6mph 1023mB
21:00 2046m -2°C -2_5 0cm 0% 5mph 6mph 1023mB
0:00 1828m -3°C -3_5 0cm 0% 5mph 6mph 1023mB
3:00 2861m 1°C 1_6 0cm 0% 6mph 7mph 1022mB
6:00 2789m 1°C 1_5 0cm 0% 5mph 6mph 1022mB
9:00 2788m 1°C 1_1 0cm 1% 1mph 1mph 1022mB
12:00 2660m 9°C 9_3 0cm 29% 3mph 3mph 1022mB
15:00 2625m 9°C 9_2 0cm 75% 2mph 3mph 1021mB
18:00 2538m 9°C 9_2 0cm 80% 2mph 2mph 1022mB
21:00 2482m 2°C 2_3 0cm 87% 3mph 3mph 1023mB
0:00 2441m 1°C 1_3 0cm 93% 3mph 4mph 1023mB
3:00 2367m 0°C 0_4 0cm 88% 4mph 5mph 1022mB
6:00 2130m 0°C 0_5 0cm 87% 5mph 6mph 1022mB
9:00 2339m 0°C 0_3 0cm 86% 3mph 6mph 1022mB
12:00 2491m 8°C 8_2 0cm 71% 2mph 6mph 1021mB
15:00 2551m 8°C 8_5 0cm 73% 5mph 8mph 1019mB
18:00 2465m 8°C 8_7 0cm 50% 7mph 10mph 1021mB
21:00 2417m 1°C 1_9 0cm 34% 9mph 14mph 1021mB
0:00 2367m 1°C 1_10 0cm 37% 10mph 17mph 1019mB
3:00 2343m 2°C 2_10 0cm 48% 10mph 17mph 1018mB
6:00 2297m 2°C 2_10 0cm 41% 10mph 16mph 1018mB
9:00 2294m 2°C 2_11 0cm 75% 11mph 26mph 1020mB
12:00 2323m 6°C 6_11 0cm 81% 11mph 18mph 1020mB
Morning 0mm 0 2598m 2°C 2_7 0cm 79% 7mph 8mph 1022mB
Afternoon 0mm 0 2679m 10°C 10_6 0cm 79% 6mph 11mph 1017mB
Morning 0.119792mm 0.125 2380m 4°C 4_10 1cm 91% 10mph 16mph 1015mB
Afternoon 0.046875mm 0.0625 2171m 5°C 5_12 1cm 76% 12mph 17mph 1012mB
Morning 0.0520833mm 0 2160m 2°C 2_12 1cm 72% 12mph 20mph 1009mB
Afternoon 0.140625mm 0.3125 2161m 5°C 5_13 0cm 52% 13mph 20mph 1010mB
Morning 0.00520833mm 0 1583m -2°C -2_12 0cm 61% 12mph 20mph 1012mB
Afternoon 0mm 0 1667m 1°C 1_12 0cm 77% 12mph 16mph 1016mB
Morning 0mm 0 517m -8°C -8_9 0cm 8% 9mph 14mph 1028mB
Afternoon 0mm 0 1355m -2°C -2_4 0cm 0% 4mph 6mph 1029mB
Morning 0mm 0 779m -7°C -7_3 0cm 2% 3mph 4mph 1035mB
Afternoon 0mm 0 1969m 4°C 4_1 0cm 62% 1mph 3mph 1030mB

16 day outlook at a glance

Forecast issued: 21/02/2019 17:42:50

Chat

Your comments and questions. In a resort? Let us know what it's like!


Characters left 250

For terms and conditions see Readers Comments on the Cookie and privacy policy page.